Regional Weather Roundup
Issued by NWS

Home | Current Version | Previous Version | Text Only | Print | Product List | Glossary Off
Versions: 1 2 3 4 5 6 7 8 9 10 11 12 13 14 15 16 17 18 19 20 21 22 23 24 25 26 27 28 29 30 31 32 33 34 35 36 37 38 39 40 41 42 43 44 45 46 47 48 49 50

000
ASUS43 KMKX 200100
RWRWI

WISCONSIN REGIONAL WEATHER ROUNDUP
NATIONAL WEATHER SERVICE MILWAUKEE/SULLIVAN WI
800 PM CDT WED JUL 19 2017

NOTE: "FAIR" INDICATES FEW OR NO CLOUDS BELOW 12,000 FEET WITH NO
SIGNIFICANT WEATHER AND/OR OBSTRUCTIONS TO VISIBILITY.

WIZ001-002-006>008-014>016-023>028-200200-
NORTHWEST WISCONSIN

CITY           SKY/WX    TMP DP  RH WIND       PRES   REMARKS
SUPERIOR ARPT  NOT AVBL
ASHLAND        CLOUDY    71  65  81 NW5       29.93R
HAYWARD        CLOUDY    74  59  59 SE3       29.94F
SIREN          CLOUDY    75  58  55 S3        29.94R
CUMBERLAND     CLOUDY    72  59  64 SE3       29.94R
RICE LAKE      CLOUDY    73  61  67 CALM      29.94R
CHETEK         CLOUDY    73  62  69 CALM      29.93R
LADYSMITH      CLOUDY    73  60  63 E5        29.95F
EAU CLAIRE     NOT AVBL
MENOMONIE      CLOUDY    70  65  85 CALM      29.93R
NEW RICHMOND   CLOUDY    69  61  76 W3        29.95R
OSCEOLA        CLOUDY    72  62  71 S5        29.98R
$$

WIZ003>005-009-010-017-018-200200-
NORTH CENTRAL WISCONSIN

CITY           SKY/WX    TMP DP  RH WIND       PRES   REMARKS
MANITOWISH WTR CLOUDY    72  59  62 SE5       29.97S
ARBOR VITAE    CLOUDY    77  59  54 SE7       29.98F
WOODRUFF       CLOUDY    77  59  54 SE7       29.98F
RHINELANDER    CLOUDY    72  60  66 SE6       29.99F
EAGLE RIVER    CLOUDY    73  54  51 SE3       29.99F
LAND O LAKES   CLOUDY    75  54  48 S3        30.00F
PHILLIPS       CLOUDY    72  59  63 E5        29.95F
TOMAHAWK         N/A     71  57  63 E3        29.96F
MEDFORD        CLOUDY    69  57  65 E5        29.93F
MERRILL        CLOUDY    72  59  63 SE6       29.95F
$$

WIZ029-030-035-036-043>047-200200-
CENTRAL WISCONSIN

CITY           SKY/WX    TMP DP  RH WIND       PRES   REMARKS
WAUSAU         CLOUDY    73  58  59 SE10      29.93F
MOSINEE        MOCLDY    73  61  64 SE7       29.94F
MARSHFIELD     CLOUDY    69  62  78 S9        29.87S
STEVENS POINT  LGT RAIN  68  63  82 S28G40    29.88F
WAUPACA        CLOUDY    77  63  63 W5        30.04F
WAUTOMA        RAIN      74  70  87 NW8       30.09R
WISC RAPIDS    CLOUDY    70  66  87 S23G43    29.84F
CAMP DOUGLAS   TSTM      68  68 100 E22G33    30.03S FOG
$$

WIZ011>013-019>022-031-037>040-048>050-200200-
NORTHEAST WISCONSIN

CITY           SKY/WX    TMP DP  RH WIND       PRES   REMARKS
ANTIGO         CLOUDY    68  58  70 SE8       29.98F
SHAWANO        CLOUDY    74  61  62 SE6       29.97F
OCONTO         CLOUDY    74  55  52 S6        30.02R
STURGEON BAY     N/A     71  53  52 SE7       30.02F
GREEN BAY      CLOUDY    74  59  59 S10       30.00F
MANITOWOC      NOT AVBL
APPLETON       CLOUDY    75  59  57 SE10      30.02F
CLINTONVILLE   CLOUDY    73  59  60 NE10G18   29.95F
OSHKOSH        CLOUDY    75  61  61 S10       30.02F
$$

WIZ032>034-041-042-053>061-200200-
SOUTHWEST WISCONSIN

CITY           SKY/WX    TMP DP  RH WIND       PRES   REMARKS
LA CROSSE      CLOUDY    74  69  85 W10G21    29.92R
SPARTA         CLOUDY    68  65  90 SE14G29   29.83F
VIROQUA        NOT AVBL
BOSCOBEL       RAIN      73  66  78 NW8G39    30.01S
PRAIRIE DU CHI LGT RAIN  68  66  94 NE7       29.98F
PLATTEVILLE    CLOUDY    67  67 100 W7        30.06F
$$

WIZ056-057-062-063-064-067-068-200200-
SOUTH CENTRAL WISCONSIN

CITY           SKY/WX    TMP DP  RH WIND       PRES   REMARKS
REEDSBURG      LGT RAIN  76  75  96 NE9       29.99R
BARABOO/DELLS  LGT RAIN  77  69  77 E9        29.99F
LONE ROCK      TSTM      70  66  87 W15G25    29.97R FOG
MINERAL POINT  RAIN      68  68 100 W12G18    30.05R
MADISON        CLOUDY    79  72  79 E15       29.97F HX  82
MIDDLETON      CLOUDY    80  72  75 SE13      29.98F HX  84
WATERTOWN      CLOUDY    75  66  72 E7        30.04S
MONROE         CLOUDY    81  73  78 SW6       30.04F HX  85
JANESVILLE     CLOUDY    82  73  74 SE8       30.03S HX  88
$$

WIZ051-052-058>065-066-070>072-200200-
SOUTHEAST WISCONSIN

CITY           SKY/WX    TMP DP  RH WIND       PRES   REMARKS
MILWAUKEE      MOCLDY    72  57  59 NE5       30.06S
WAUKESHA       CLEAR     72  55  56 E6        30.08R
MILWAUKEE/TIMM NOT AVBL
RACINE         PTCLDY    72  58  61 E5        30.08R
KENOSHA        MOCLDY    71  60  68 NE6       30.07R
FOND DU LAC    CLOUDY    75  58  55 SE8       30.04F
SHEBOYGAN      CLOUDY    70  62  76 W5        30.08R
WEST BEND      CLOUDY    72  55  56 CALM      30.08R
JUNEAU         CLOUDY    75  63  65 E7        30.06F
$$

LSZ147-162-200200-
LAKE SUPERIOR

STATION/POSITION TIME  TEMP    WIND        PRES    WAVE
                       AIR SEA DIR/SP/G            HT/PER
                 (UTC) (F)     (DEG/KT/KT) (MB)    (FT/S)
W MID LAKE BUOY  2350   52 48   70/  8/  8 1014.7F   0
DEVILS ISLAND    0000   60     110/ 10/ 10 1013.6F
SAXON HARBOR     0040   71     220/  2/  3 1012.5F
$$

LMZ867-665-643>646-200200-
LAKE MICHIGAN

STATION/POSITION TIME  TEMP    WIND        PRES    WAVE
                       AIR SEA DIR/SP/G            HT/PER
                 (UTC) (F)     (DEG/KT/KT) (MB)    (FT/S)
CHAMBERS ISLAND  0040   73     150/  3/  7 1015.9F
S GREEN BAY BUOY 0030   75 72  160/ 12/ 14 1016.3F
N MID LAKE BUOY  2350   68 66  190/  8/ 10 1017.2F   1
NORTHPORT PIER   0040   72     170/  4/  8 1016.3F
KEWAUNEE LAKESHO 0030   72     180/  5/  6 1016.4F
SHEBOYGAN LAKESH 0000   69     180/  2/  3 1017.4F
PORT WASHINGTON  0040   73      30/  4/  5 1019.0R
ATWATER BUOY     2309   69 69   CALM  /  2 1018.2F
MILWAUKEE LAKESH 0040   70      20/  5/  5   N/A
S MID LAKE BUOY  2350   71 71   30/  4/  6 1017.6F   1/ 3
KENOSHA   LAKESH 0000   69      60/  2/  3 1017.6
$$

TC  - TEMPERATURE IN CELSIUS
VSB - VISIBILITY IN STATUTE MILES
WCI - WIND CHILL INDEX
HX  - HEAT INDEX





USA.gov is the U.S. government's official web portal to all federal, state and local government web resources and services.